Flag for Pakistan Weather past 2 weeks in Karachi, Pakistan

Now
86 °F

Partly cloudy.


Feels Like: 93 °F
Forecast: 85 / 91 °F
Wind: 15 mph from West

Location: Karachi Airport

Current Time: Jul 24, 2014 at 1:47:08 AM

Latest Report: Jul 24, 2014 at 12:55 AM


Visibility: 4 mi

Pressure: 29.47 "Hg

Humidity: 66%

Dew point: 73 °F

Location of KarachiLocation

Historic Weather in Karachi — Graph

°F

Karachi temperature yesterday

Maximum temperature yesterday: 93 °F (at 2:55 PM)
Minimum temperature yesterday: 84 °F (at 4:55 AM)
Average temperature yesterday: 88 °F

Past Weeks' High & Low Weather Summary

 TemperatureHumidityPressure
High95 °F (Jul 14, 12:25 PM)100% (Jul 15, 2:25 AM)29.59 "Hg (Jul 15, 2:25 AM)
Low48 °F (Jul 15, 2:25 AM)44% (Jul 10, 1:55 PM)29.33 "Hg (Jul 20, 2:25 PM)
Average88 °F64%29.49 "Hg
* Reported Jul 9 12:25 AM — Jul 24 12:55 AM, Karachi, Weather by CustomWeather, © 2014

Note: Actual official high and low records may vary slightly from our data, if they occured in-between our weather recording intervals... More about our weather records

Advertising

Karachi weather history for previous 24 hours

 ConditionsComfort  
Time TempWeatherWind HumidityBarometerVisibility
12:55 AM
Jul 24
86 °FPartly cloudy.15 mph66%29.47 "Hg4 mi
11:55 PM
Jul 23
86 °FPartly cloudy.18 mph66%29.50 "Hg4 mi
11:25 PM86 °FPartly cloudy.14 mph66%29.50 "Hg4 mi
10:55 PM86 °FPartly cloudy.16 mph66%29.50 "Hg4 mi
10:25 PM86 °FPartly cloudy.17 mph66%29.50 "Hg4 mi
9:55 PM86 °FPassing clouds.16 mph66%29.50 "Hg4 mi
9:25 PM86 °FPassing clouds.18 mph66%29.50 "Hg4 mi
8:55 PM86 °FPassing clouds.20 mph66%29.50 "Hg4 mi
8:25 PM86 °FPassing clouds.18 mph66%29.47 "Hg4 mi
7:55 PM86 °FPassing clouds.23 mph62%29.47 "Hg3 mi
7:25 PM86 °FPassing clouds.18 mph62%29.47 "Hg3 mi
6:55 PM86 °FPartly sunny.28 mph62%29.45 "Hg3 mi
6:25 PM88 °FPartly sunny.23 mph59%29.45 "Hg3 mi
5:55 PM88 °FPartly sunny.23 mph59%29.45 "Hg3 mi
3:25 PM91 °FPartly sunny.20 mph52%29.45 "Hg4 mi
2:55 PM93 °FPartly sunny.24 mph49%29.45 "Hg4 mi
2:25 PM91 °FPartly sunny.28 mph49%29.45 "Hg4 mi
1:55 PM91 °FPartly sunny.28 mph52%29.45 "Hg4 mi
1:25 PM91 °FPartly sunny.23 mph56%29.47 "Hg4 mi
12:55 PM91 °FScattered clouds.28 mph56%29.47 "Hg4 mi
10:55 AM91 °FPartly sunny.21 mph52%29.50 "Hg4 mi
10:25 AM90 °FPartly sunny.23 mph55%29.50 "Hg4 mi
9:55 AM90 °FPartly sunny.20 mph55%29.50 "Hg4 mi
9:25 AM90 °FPartly sunny.18 mph55%29.50 "Hg4 mi
8:55 AM88 °FScattered clouds.16 mph59%29.50 "Hg4 mi
8:25 AM86 °FScattered clouds.16 mph62%29.50 "Hg4 mi
7:55 AM86 °FPartly sunny.17 mph62%29.50 "Hg4 mi
7:25 AM86 °FPartly sunny.17 mph66%29.50 "Hg4 mi
6:55 AM84 °FBroken clouds.17 mph70%29.47 "Hg4 mi
6:25 AM84 °FBroken clouds.13 mph70%29.47 "Hg4 mi
5:55 AM84 °FBroken clouds.16 mph74%29.47 "Hg4 mi
4:55 AM84 °FPassing clouds.12 mph74%29.47 "Hg4 mi
Weather by CustomWeather, © 2014

See weather overviewHow to use our weather pages